OpenBCM V1.13 (Linux)

Packet Radio Mailbox

DB0FHN

[JN59NK Nuernberg]

 Login: GUEST





  
LU9DCE > KEP      25.02.19 20:03l 96 Lines 4587 Bytes #999 (0) @ WW
BID : 18985_LU9DCE
Read: DF7EAV DK3UZ DB1MEA GUEST
Subj: TLE 25 02
Path: DB0FHN<DB0BLO<DB0ERF<DB0RES<IR2UBX<IW8PGT<CX2SA<EA2RCF<LU9DCE
Sent: 190225/1801Z 18985@LU9DCE.TOR.BA.ARG.SOAM LinBPQ6.0.18

            __    _  _  ___  ____   ___  ____    ____  ____  ____
           (  )  / )( \/ _ \(    \ / __)(  __)  (  _ \(  _ \/ ___)
           / (_/\) \/ (\__  )) D (( (__  ) _)    ) _ ( ) _ (\___ \
           \____/\____/(___/(____/ \___)(____)  (____/(____/(____/
               ESTACION DE PACKET RADIO - BUENOS AIRES (GF05OM)
                   BOLETINES INFORMATIVOS PROGRAMADOS (BIP)
                  SOPORTE TECNICO - HELLOCODELINUX@GMAIL.COM

+----------------------------------------------------------------------------+
OSCAR 7
1  7530U 74089B   19056.55793252 -.00000028  00000-0  10570-3 0  9999
2  7530 101.7290  25.4477 0011939 204.4209 269.4862 12.53636777 26349
OSCAR 11 (UoSAT 2)
1 14781U 84021B   19056.15012071  .00000022  00000-0  89017-5 0  9998
2 14781  97.6233  86.1650 0007868 342.6082  17.4862 14.83065472881930
OSCAR 19 (LUSAT)
1 20442U 90005G   19055.64110681 +.00000016 +00000-0 +22016-4 0  9995
2 20442 098.6376 357.9048 0012691 122.6241 237.6169 14.32917957519980
EYESAT A
1 22825U 93061C   19055.94365086 -.00000012 +00000-0 +13381-4 0  9993
2 22825 098.8942 042.0393 0007986 337SWISSCUBE
1 35932U 09051B   19055.67744345  .00000106  00000-0  34995-4 0  9998
2 35932  98.5728 218.3966 0008316 149.1389 211.0298 14.56246770500180
BEESAT
1 35933U 09051C   19056.44333856  .00000086  00000-0  30431-4 0  9994
2 35933  98.5761 220.8835 0006341 156.9445 203.2037 14.56340884500406
ITUPSAT 1
1 35935U 09051E   19056.43592363  .00000064  00000-0  25923-4 0  9991
2 35935  98.5874 221.1206 0008683 156.1778 203.9822 14.55506036500165
XIWANG-1 (HOPE-1)
1 36122U 09072B   19056.41269084 -.00000045  00000-0 -80745-5 0  9997
2 36122 100.0726  64.1216 0006784 245.5952 114.4459 13.16348489441979
TISAT 1
1 36799U 10035E   19055.86804071 +.00000255 +00000-0 +31840-4 0  9999
2 36799 098.1374 204.3673 0013667 099.2811 260.9952 14.91010709467604
JUGNU
1 37839U 11058B   19055.94891994 +.00000309 +00000-0 +23036-4 0  9998
2 37839 019.9615 304.5270 0018984 153.0997 311.5337 14.12642386381044
SRMSAT
1 37841U 11058D   19056.26907231  .00000301  00000-0  20598-4 0  9991
2 37841  19.9731 357.0120 0011865  31.7058 123.0931 14.10624845380665
M-CUBED/EXP-1 PRIME
1 37855U 11061F   19056.46955846  .00000733  00000-0  44840-4 0  9992
2 37855 101.7280 253.8663 0174398  52.3114 3000550  00000-0  27037-4 0  9993
2 40300  97.3368 133.4396 0021248  92.1553 327.4155 15.21922737238791
NUDT-PHONESAT
1 40900U 15049B   19056.40753872  .00001737  00000-0  78347-4 0  9990
2 40900  97.4398  66.8781 0011883 215.3976 250.8529 15.22302124190424
ZDPS 2A
1 40901U 15049C   19056.47854531  .00000870  00000-0  46701-4 0  9998
2 40901  97.4604  63.9516 0012029 232.5822 281.5410 15.17519598190062
ZDPS 2B
1 40902U 15049D   19056.48747561  .00000729  00000-0  39922-4 0  9994
2 40902  97.4529  61.6084 0012110 229.6532 282.2559 15.17294678190049
XW-2A
1 40903U 15049E   19056.45053869  .00001434  00000-0  36303-4 0  9997
2 40903  97.3532  98.5012 0013268 187.9223 280.5998 15.41394875192802
KAITUO 1A
1 40904U 15049F   19056.49371558  .00000388  00000-0  24137-4 0  9999
2 40904  97.4655  60.4597 0013133 236.8892 274.3400 15.15253340189855
OBJECT G
1 40905U 15049G   19056.49434230  .00000260  00000-0  17808-4 0  9993
2 40905  97.4675  58.1553 0014237 230.4786 280.9664 15.14188024189740
XW-2C
1 40906U 15049H   19056.51726356  .00000278  00000-0  18150-4 0  9990
2 40906  97.4654  60.4928 0013567 227.2390 289.6503 15.15516495189858
XW-2D
1 40907U 15049J   19056.3673249995
2 41783  98.0835 117.8672 0033998  24.1627 336.1161 14.62974257128902
ALSAT 1N
1 41789U 16059G   19056.42368869  .00000080  00000-0  24295-4 0  9991
2 41789  98.0851 120.1716 0028830  13.4558 346.7412 14.64218443129070
NAYIF 1
1 42017U 17008BX  19055.74868551 +.00001135 +00000-0 +48112-4 0  9994
2 42017 097.4170 123.9646 0005731 196.3385 163.7669 15.25166462112556
LILACSAT-1
1 42725U 98067ME  19056.46334212  .00157731  21086-4  37006-3 0  9990
2 42725  51.6384 128.3507 0003875  19.4204  77.7951 15.96586720100532
MAX VALIER SAT
1 42778U 17036P   19055.51877831  .00000668  00000-0  32450-4 0  9993
2 42778  97.3703 115.6204 0010831 263.7585  96.2417 15.21780280 92876

+----------------------------------------------------------------------------+

You will remember something that you should not have forgotten.

//////////////////////////////////////////////////////////////////////////////

Soporte tecnico las 24hs - HELLOCODELINUX@GMAIL.COM
- Servidores / empresas / Desktop
* Mantenimiento * Optimizacion * Soluciones
* Seguridad - Proteccion
--------------------------- Abono mensual - Consulte




Read previous mail | Read next mail


 10.05.2026 08:01:07lGo back Go up